Terminal Aerodrome Forecast
Issued by NWS Chicago, IL

Home | Current Version | Previous Version | Graphics & Text | Print | Product List | Glossary On
Versions: 1 2 3 4 5 6 7 8 9 10 11 12 13 14 15 16 17 18 19 20 21 22 23 24 25 26 27 28 29 30 31 32
000
FTUS43 KLOT 222000 AAB
TAFRFD
TAF AMD
KRFD 222002Z 2220/2318 22012G17KT P6SM BKN030
     FM222300 24014G20KT P6SM VCTS SCT030 BKN040CB
     FM230300 35010KT P6SM BKN040
     FM230600 01013KT P6SM SCT030 BKN250
     FM231400 02012G17KT P6SM BKN200=

USA.gov is the U.S. government's official web portal to all federal, state and local government web resources and services.